COSMOS 2245

导读

COSMOS 2245(宇宙2245)是独联体(CIS)发射的军事侦察卫星,隶属于俄罗斯/苏联“宇宙”系列卫星。该卫星于1993年5月11日8时成功发射入轨,沿用了“宇宙”系列卫星标准化保密设计,主要承担军事光学侦察、空间态势监测等任务,延续了苏联解体后独联体空间军事部署的连续性,目前该卫星已完成设计寿命,相关空间碎片仍在轨道留存。

Basic Information
目录编号:
22646
目录名称:
COSMOS 2245
国际标识:
1993-030A
轨道中心:
EARTH
卫星名称:
COSMOS 2245
卫星全名:
--
卫星状态:
在轨 (已飞行12178 天)
发射日期:
1993-05-11 UTC
国别 :
俄罗斯(独联体) (CIS)
星等 :
--
This satellite is enrolled in the Space Conjunction Data Service (SCDS) and the current flight risk assessment level is: No High Risk
Orbit Information
数据来源 国际轨道数据 AOE轨道数据
星历时间 2026-09-13T08:02:06+0800
6小时前
查看轨道信息
2026-09-09T23:00:00+0800
3天前
查看轨道信息
半长轴 7784.293km 7784.293km
偏心率 0.001288 0.0012859
轨道倾角 82.580° 82.579°
近地点辐角 62.942° 70.408°
升交点赤经 254.060° 256.221°
平近点角 311.218° 66.239°
近地点 1396.129km 1396.146km
远地点 1416.183km 1416.166km
周期 113.917分钟 113.917分钟
每日圈数 12.640786 12.640785
Detailed Information
使用方式:
暂无
2D Orbit Map
3D Orbit Map
Orbit Altitude Analysis Chart
Orbit Inclination Analysis Chart
Orbit Comprehensive Analysis Chart
View Comprehensive Chart
Miss Distance Evolution Trend with All Objects
Collision Probability Evolution Trend with All Objects